Location: Bemmer
(51.5498°N, 5.6249°E)
Time: 13:58:18
(UTC+00:00)

ERBS - Pass Details

Date: 03 March 2021
Orbit: 408 x 413 km, 57.0° (Epoch: 11 April)

Event Time Altitude Azimuth Distance (km) Brightness Sun altitude
Rises 18:57:07 0° 255° (WSW) 2,348 7.3 -15.6°
Reaches altitude 10° 18:59:14 10° 261° (W) 1,487 6.2 -15.9°
Maximum altitude 19:02:29 50° 339° (NNW) 534 2.9 -16.4°
Enters shadow 19:04:00 27° 42° (NE) 838 3.5 -16.7°
